User: anonymous   Login
Location: Ladysmith
(45.4630°N, 91.1040°W)
Time: 00:08:36
(UTC-05:00)
Language:

SO-67 - Orbit

View from above orbital plane
View from above orbital plane
View from above satellite
View from above satellite

Ground track
Ground track

The orbit data is extracted from the following two-line orbital elements,

1 35870U 09049F   16240.83518608  .00006265  00000-0  11488-3 0  9991
2 35870  97.1184 254.7449 0002880  80.4396  44.7176 15.49636179387736
Epoch (UTC): 27 August 2016 20:02:40
Eccentricity: 0.0002880
inclination: 97.1184°
perigee height: 416 km
apogee height: 420 km
right ascension of ascending node: 254.7449°
argument of perigee: 80.4396°
revolutions per day: 15.49636179
mean anomaly at epoch: 44.7176°
orbit number at epoch: 38773

The dashed part of the orbit path shows where the satellite is in the earth's shadow,  

DLR